[[{"header":{"parameterUnit":"m.s-1","parameterCategory":1,"la1":30.2991,"la2":30.254,"lo1":-89.0895,"lo2":-89.0444,"dy":0.0017,"dx":0.0017,"nx":28,"ny":28,"refTime":"2025-05-27T21:00:00:Z","depth":0,"parameterNumber":2,"parameterNumberName":"U-component_of_WINDS"},"data":[0,0,0,0,0,0,0,0,0,0,0,0,0,0,0,0,0,0,0,0,0,0,0,0,0,0,0,0,0,0,0,0,0,0,0,0,0,0,0,0,0,0,0,0,0,0,0,0,0,0,0,0,0,0,0,0,0,0,0.2364,0.2364,0,0.2386,0.2386,0.2386,0.2416,0.2417,0.2417,0.2418,0.2439,0.2439,0.2439,0,0,0,0,0,0,0,0,0,0,0,0,0,0.2347,0.2347,0.2364,0.2364,0.2365,0.2386,0.2386,0.2386,0.2416,0.2417,0.2418,0.2418,0.2439,0.2439,0.2439,0,0,0,0,0,0,0,0,0,0,0,0,0,0.236,0.2347,0.2364,0.2382,0.2384,0.2386,0.2386,0.2387,0.2416,0.2417,0.2418,0.2418,0.2439,0.2439,0.2439,0.2425,0,0,0.244,0.244,0,0,0,0,0,0,0,0,0.236,0.2361,0.2379,0.2381,0.2383,0.2399,0.2388,0.2399,0.2416,0.2404,0.2418,0.2419,0.2425,0.2427,0.2429,0.2426,0.2427,0.244,0.244,0.244,0.244,0,0,0,0,0,0,0,0.2359,0.236,0.2373,0.2379,0.2382,0.2389,0.2391,0.239,0.241,0.2405,0.2407,0.2409,0.2426,0.2429,0.243,0.2427,0.244,0.244,0.244,0.244,0.2413,0.2412,0,0,0,0,0,0,0.2355,0.2359,0.2372,0.2373,0.2373,0.2388,0.2392,0.2393,0.241,0.2413,0.2409,0.2411,0.2428,0.2429,0.243,0.2414,0.244,0.244,0.244,0.2413,0.2412,0.2412,0,0,0,0,0,0,0.2355,0.2356,0.2371,0.2367,0.2369,0.2388,0.239,0.2393,0.2396,0.2413,0.2416,0.2408,0.2429,0.243,0.2426,0.2415,0.244,0.244,0.2414,0.2413,0.2412,0.238,0,0,0,0,0,0,0.2354,0.2356,0.2351,0.2367,0.2369,0.2366,0.2389,0.2393,0.2396,0.2399,0.2413,0.2416,0.2429,0.2426,0.2426,0.2415,0.244,0.2415,0.2414,0.2412,0.2382,0.2378,0.2375,0,0,0,0,0,0.2353,0.2341,0.235,0.2352,0.2364,0.2366,0.2367,0.2384,0.2395,0.239,0.2401,0.2415,0.2416,0.2425,0.2426,0.2415,0.2416,0.2414,0.2413,0.2384,0.2379,0.2375,0,0,0,0,0,0,0.2322,0.2343,0.2354,0.2346,0.2354,0.2371,0.2365,0.2378,0.2382,0.2385,0.2404,0.2407,0.24,0.2408,0.2417,0.2402,0.2418,0.2417,0.2397,0.2392,0.2388,0.2386,0.244,0,0,0,0,0,0.2315,0.2315,0.2333,0.2325,0.2328,0.2346,0.2347,0.2359,0.2368,0.2371,0.2382,0.239,0.2392,0.2393,0.2396,0.2384,0.2387,0.2377,0.2374,0.237,0.2368,0.2361,0.2357,0.2406,0.2406,0.2406,0,0,0.2299,0.231,0.2309,0.2319,0.2326,0.2326,0.2348,0.2347,0.2346,0.2371,0.2367,0.2376,0.2385,0.2377,0.2374,0.2383,0.2355,0.2368,0.2365,0.2365,0.2359,0.2354,0.235,0.2404,0.2405,0.2405,0,0,0.2269,0.2278,0.2271,0.2279,0.229,0.2302,0.23,0.2315,0.2322,0.2318,0.2337,0.2337,0.234,0.2346,0.2349,0.2322,0.2335,0.2323,0.2301,0.2295,0.2291,0.2288,0.2277,0.2272,0.2321,0.2321,0.2321,0,0.2247,0.2247,0.2266,0.2264,0.2267,0.229,0.2283,0.2289,0.23,0.2302,0.2312,0.2316,0.2325,0.2318,0.2311,0.2314,0.2312,0.232,0.229,0.2287,0.2284,0.2274,0.227,0.2319,0.2319,0.2319,0.2319,0,0.2219,0.2219,0.2213,0.2223,0.2226,0.2221,0.2239,0.2239,0.2251,0.2262,0.2258,0.2269,0.2274,0.2274,0.2286,0.2268,0.2273,0.2287,0.2304,0.2277,0.2268,0.2264,0.2316,0.2317,0.2318,0.2318,0,0,0.2169,0.2191,0.2188,0.2193,0.2207,0.2207,0.2203,0.2209,0.2208,0.2215,0.2212,0.2214,0.2227,0.2231,0.2243,0.2238,0.2214,0.2252,0.2252,0.2243,0.2194,0.2183,0.2178,0.2224,0.2223,0.2223,0.2193,0,0.214,0.2135,0.2152,0.2142,0.2142,0.2164,0.2161,0.2169,0.2179,0.218,0.2191,0.2192,0.2209,0.2211,0.2207,0.2218,0.2204,0.222,0.2219,0.2219,0.2214,0.2173,0.2161,0.2132,0.2189,0.2189,0.2188,0,0.2106,0.2112,0.2101,0.2116,0.2117,0.2113,0.2119,0.212,0.213,0.2137,0.2142,0.2157,0.2154,0.2171,0.2167,0.2177,0.2178,0.2184,0.2183,0.2182,0.2201,0.2169,0.2124,0.2119,0.2183,0.2183,0.2184,0,0.2068,0.2073,0.2068,0.2071,0.2089,0.2086,0.2093,0.2103,0.2105,0.2111,0.2112,0.2117,0.2119,0.2123,0.2138,0.215,0.2131,0.2151,0.2136,0.2136,0.213,0.213,0.2082,0.2134,0.2134,0.2134,0.2134,0,0.2033,0.2025,0.2051,0.2047,0.2039,0.2059,0.2051,0.206,0.207,0.2068,0.2088,0.2086,0.2107,0.2107,0.212,0.2113,0.2115,0.212,0.2123,0.2117,0.2116,0.2116,0.2118,0.2133,0.2133,0.2133,0.2133,0,0.1988,0.2005,0.2,0.2018,0.2022,0.2015,0.2029,0.2026,0.2038,0.2036,0.2036,0.2054,0.2056,0.2072,0.2077,0.2085,0.2073,0.2081,0.2069,0.2071,0.2055,0.2056,0.2005,0.1998,0.2056,0.2055,0.2055,0,0.1964,0.1958,0.1975,0.1976,0.1982,0.1982,0.1985,0.2005,0.2006,0.2017,0.2012,0.2015,0.2018,0.2019,0.2032,0.2036,0.2042,0.2024,0.2043,0.2037,0.204,0.2039,0.2038,0.202,0.2019,0.2018,0.2018,0,0.1918,0.1927,0.1929,0.1935,0.1937,0.1942,0.1949,0.1948,0.197,0.197,0.1972,0.1974,0.1979,0.1981,0.1987,0.1994,0.2009,0.2012,0.2009,0.2001,0.1994,0.1996,0.2056,0.2013,0.2013,0.2014,0.2014,0.2014,0.1881,0.1877,0.1888,0.1891,0.1898,0.1903,0.1901,0.1913,0.1915,0.192,0.1932,0.1931,0.1941,0.1951,0.1957,0.1956,0.1965,0.1961,0.1959,0.1957,0.1953,0.1996,0.1958,0.1958,0.1958,0.1958,0.1958,0,0.1835,0.1843,0.1845,0.1854,0.1855,0.1871,0.1879,0.1879,0.1878,0.1886,0.1889,0.189,0.1893,0.1907,0.191,0.1907,0.1914,0.1907,0.1907,0.1908,0.1946,0.1948,0.1902,0.1902,0.1902,0.1902,0.1902,0.1902,0.181,0.1804,0.1814,0.1812,0.182,0.182,0.1823,0.1828,0.1835,0.1835,0.1838,0.1847,0.1857,0.1862,0.1865,0.1869,0.1868,0.1859,0.1865,0.19,0.1905,0.191,0.1912,0.1859,0.1859,0.1826,0.1826,0.1826]},{"header":{"parameterUnit":"m.s-1","parameterCategory":1,"la1":30.2991,"la2":30.254,"lo1":-89.0895,"lo2":-89.0444,"dy":0.0017,"dx":0.0017,"nx":28,"ny":28,"refTime":"2025-05-27T21:00:00:Z","depth":0,"parameterNumber":3,"parameterNumberName":"V-component_of_WINDS"},"data":[0,0,0,0,0,0,0,0,0,0,0,0,0,0,0,0,0,0,0,0,0,0,0,0,0,0,0,0,0,0,0,0,0,0,0,0,0,0,0,0,0,0,0,0,0,0,0,0,0,0,0,0,0,0,0,0,0,0,4.3434,4.3435,0,4.3538,4.3539,4.354,4.352,4.3518,4.3517,4.3515,4.3614,4.3619,4.3623,0,0,0,0,0,0,0,0,0,0,0,0,0,4.3211,4.3216,4.3434,4.3435,4.3437,4.3538,4.3539,4.3541,4.3521,4.3518,4.3516,4.3514,4.3613,4.3618,4.3623,0,0,0,0,0,0,0,0,0,0,0,0,0,4.3311,4.3217,4.3434,4.3439,4.3441,4.3538,4.3539,4.3541,4.3521,4.3518,4.3516,4.3513,4.3611,4.3618,4.3624,4.372,0,0,4.3644,4.3647,0,0,0,0,0,0,0,0,4.3305,4.3319,4.3437,4.3439,4.3441,4.3514,4.3497,4.3601,4.3522,4.349,4.3515,4.3512,4.3583,4.3591,4.3617,4.3725,4.3729,4.3645,4.3649,4.3651,4.3653,0,0,0,0,0,0,0,4.3298,4.3314,4.3475,4.3439,4.3441,4.3434,4.3445,4.3517,4.355,4.3493,4.3492,4.3505,4.3583,4.361,4.3619,4.3731,4.3644,4.365,4.3654,4.3657,4.3924,4.3927,0,0,0,0,0,0,4.3291,4.3309,4.3472,4.3478,4.3365,4.344,4.3453,4.3493,4.355,4.3556,4.3507,4.3503,4.3601,4.3611,4.3622,4.374,4.3651,4.3658,4.3661,4.3921,4.3924,4.3928,0,0,0,0,0,0,4.3286,4.3305,4.3467,4.3393,4.3413,4.3447,4.3492,4.3496,4.3524,4.3561,4.3566,4.3529,4.3599,4.3613,4.3697,4.3743,4.3661,4.3667,4.3917,4.3922,4.3926,4.3975,0,0,0,0,0,0,4.328,4.3304,4.3342,4.3394,4.3417,4.3542,4.3495,4.35,4.3536,4.3532,4.3583,4.3588,4.3598,4.3687,4.3703,4.375,4.3672,4.3913,4.3919,4.3925,4.3969,4.3981,4.399,0,0,0,0,0,4.3272,4.335,4.3344,4.3364,4.3467,4.3545,4.3558,4.3569,4.354,4.3578,4.3602,4.3587,4.3735,4.3696,4.3714,4.3764,4.391,4.3917,4.3924,4.3965,4.3978,4.399,0,0,0,0,0,0,4.3299,4.3357,4.3351,4.3449,4.3493,4.3542,4.359,4.3583,4.3634,4.3628,4.3638,4.3649,4.3735,4.3757,4.3712,4.386,4.3818,4.3829,4.3843,4.3856,4.3867,4.3859,4.3677,0,0,0,0,0,4.3318,4.3379,4.3424,4.3506,4.3529,4.3556,4.359,4.3595,4.364,4.3657,4.3687,4.3729,4.3785,4.3822,4.3875,4.3972,4.3983,4.4015,4.4026,4.4034,4.4044,4.4097,4.4113,4.3951,4.3951,4.3951,0,0,4.3354,4.3393,4.3431,4.3513,4.3547,4.3609,4.3571,4.3637,4.3683,4.3666,4.3749,4.3772,4.3819,4.391,4.3952,4.3932,4.4091,4.4043,4.405,4.4055,4.4106,4.4122,4.4135,4.3956,4.3955,4.3954,0,0,4.3453,4.3489,4.3562,4.3598,4.3651,4.3669,4.3687,4.3737,4.3753,4.3836,4.3825,4.3878,4.3974,4.4009,4.4039,4.4152,4.4141,4.4169,4.4224,4.4276,4.4289,4.4301,4.4342,4.4356,4.4178,4.4178,4.4178,0,4.3491,4.3586,4.3599,4.3668,4.3704,4.3695,4.3768,4.3801,4.3868,4.3893,4.387,4.3992,4.4023,4.4122,4.415,4.4175,4.4194,4.4164,4.4287,4.4298,4.4309,4.4348,4.4364,4.4181,4.4181,4.4181,4.418,0,4.3631,4.3697,4.3749,4.3818,4.3859,4.393,4.3952,4.3992,4.3993,4.4013,4.4097,4.4134,4.4196,4.422,4.422,4.432,4.4306,4.4285,4.4243,4.4327,4.4365,4.438,4.4186,4.4185,4.4184,4.4183,0,0,4.375,4.3827,4.3846,4.3877,4.3936,4.3986,4.4055,4.4118,4.4153,4.4199,4.4257,4.434,4.4321,4.4356,4.436,4.4406,4.4494,4.4379,4.438,4.44,4.4606,4.4623,4.464,4.4487,4.449,4.4492,4.4603,0,4.3855,4.3981,4.3995,4.4106,4.4167,4.416,4.422,4.4262,4.4282,4.4335,4.4355,4.4414,4.4385,4.4406,4.4451,4.4474,4.4536,4.4466,4.454,4.4542,4.4529,4.4659,4.4676,4.4779,4.4617,4.462,4.4621,0,4.3995,4.4049,4.4168,4.422,4.4246,4.43,4.4359,4.441,4.4457,4.4468,4.4507,4.4506,4.4576,4.4531,4.4627,4.4579,4.461,4.4626,4.463,4.4638,4.4587,4.4671,4.4812,4.4828,4.4644,4.4642,4.4641,0,4.4072,4.4173,4.4258,4.4285,4.4347,4.4386,4.4413,4.4457,4.4495,4.4545,4.457,4.4626,4.4658,4.4701,4.4715,4.4681,4.481,4.4766,4.4821,4.4821,4.4849,4.4847,4.4998,4.4867,4.4867,4.4867,4.4866,0,4.4188,4.4261,4.4294,4.4346,4.4427,4.4441,4.452,4.4545,4.4585,4.464,4.4635,4.4687,4.4702,4.4755,4.4766,4.4844,4.4857,4.4868,4.487,4.4869,4.4868,4.4889,4.4883,4.4871,4.487,4.4869,4.4869,0,4.4287,4.4312,4.4404,4.4457,4.4472,4.4529,4.4573,4.4622,4.4642,4.4712,4.4729,4.4759,4.4822,4.484,4.4914,4.4921,4.5013,4.5008,4.4999,4.4999,4.5053,4.5048,4.5224,4.5247,4.51,4.5102,4.5103,0,4.4361,4.4417,4.4477,4.4516,4.4545,4.4606,4.4645,4.4661,4.4701,4.4759,4.4801,4.4864,4.4916,4.5016,4.5043,4.51,4.5097,4.5154,4.5105,4.5103,4.5099,4.5096,4.5102,4.5164,4.5165,4.5167,4.5168,0,4.4489,4.4499,4.4557,4.462,4.4667,4.4716,4.4763,4.4794,4.4816,4.4861,4.4927,4.4967,4.5045,4.5107,4.5165,4.5191,4.5183,4.5183,4.5199,4.5199,4.5192,4.5197,4.5025,4.5179,4.5178,4.5177,4.5176,4.5176,4.4578,4.4629,4.468,4.4744,4.4782,4.4826,4.4876,4.4903,4.4959,4.5026,4.5031,4.5102,4.5147,4.5225,4.5253,4.5308,4.5291,4.5313,4.5319,4.5325,4.533,4.5182,4.5318,4.5318,4.5318,4.5317,4.5317,0,4.4707,4.474,4.4799,4.4867,4.4918,4.4909,4.496,4.5003,4.5067,4.5111,4.5162,4.5238,4.5298,4.5331,4.5391,4.5428,4.5426,4.5443,4.5441,4.5447,4.5342,4.5323,4.5444,4.5444,4.5444,4.5444,4.5444,4.5444,4.478,4.4866,4.4882,4.4985,4.5016,4.5089,4.512,4.516,4.5196,4.5282,4.5333,4.5355,4.5394,4.5456,4.5511,4.5519,4.5541,4.5561,4.5567,4.5467,4.5454,4.5442,4.5424,4.5565,4.5566,4.5668,4.5669,4.567]}]]